Weather History for KBJC - July, 2013

Change the Weather History Date:

Tuesday, July 2, 2013

  Actual Average Record
Temperature  
Mean Temperature 68 °F -  
Max Temperature 82 °F 85 °F 99 °F (1990)
Min Temperature 55 °F 59 °F 48 °F (1985)
Cooling Degree Days 4    
Growing Degree Days 18 (Base 50)    
Moisture  
Dew Point 47 °F    
Average Humidity 56    
Maximum Humidity 88    
Minimum Humidity 23    
Precipitation  
Precipitation 0.00 in - - ()
Sea Level Pressure  
Sea Level Pressure 30.27 in    
Wind  
Wind Speed 5 mph (North)    
Max Wind Speed 10 mph    
Max Gust Speed 16 mph    
Visibility 10 miles    
Events      
Averages and records for this station are not official NWS values.
T = Trace of Precipitation, MM = Missing Value Source: NWS Daily Summary

Daily Weather History Graph

Daily Weather History Graph

Search for Another Location

Airport or City:

Trip Planner

Search our weather history database for the weather conditions in past years. The results will help you decide how hot, cold, wet, or windy it might be!

Date:

Astronomy

Jul. 02, 2013 Rise Set
Actual Time 5:36 AM MDT 8:32 PM MDT
Civil Twilight 5:03 AM MDT 9:05 PM MDT
Nautical Twilight 4:22 AM MDT 9:46 PM MDT
Astronomical Twilight 3:34 AM MDT 10:33 PM MDT
Moon 1:40 AM MDT (7/2) 3:49 PM MDT (7/2)
Length of Visible Light 16h 01m
Length of Day
14h 56m
Waning Crescent, 26% of the Moon is Illuminated
Jul 2
Waning Crescent
Jul 8
New
Jul 15
First Quarter
Jul 22
Full
Jul 29
Last Quarter

Hourly Weather History & Observations

Time (MDT) Temp. Dew Point Humidity Pressure Visibility Wind Dir Wind Speed Gust Speed Precip Events Conditions
12:16 AM 59.0 °F 51.8 °F 77% 30.33 in 10.0 mi West 6.9 mph - N/A   Clear
12:36 AM 59.0 °F 51.8 °F 77% 30.33 in 10.0 mi West 5.8 mph - N/A   Clear
12:56 AM 62.6 °F 51.8 °F 68% 30.33 in 10.0 mi Calm Calm - N/A   Clear
1:16 AM 60.8 °F 51.8 °F 72% 30.32 in 10.0 mi Calm Calm - N/A   Clear
1:35 AM 60.8 °F 51.8 °F 72% 30.31 in 10.0 mi NW 9.2 mph - N/A   Clear
1:56 AM 60.8 °F 51.8 °F 72% 30.31 in 10.0 mi NW 10.4 mph - N/A   Clear
2:16 AM 60.8 °F 51.8 °F 72% 30.31 in 10.0 mi ENE 6.9 mph - N/A   Clear
2:36 AM 59.0 °F 51.8 °F 77% 30.30 in 10.0 mi NNE 4.6 mph - N/A   Clear
2:55 AM 59.0 °F 51.8 °F 77% 30.30 in 10.0 mi Calm Calm - N/A   Clear
3:16 AM 59.0 °F 50.0 °F 72% 30.29 in 10.0 mi Calm Calm - N/A   Clear
3:36 AM 57.2 °F 51.8 °F 82% 30.29 in 10.0 mi Calm Calm - N/A   Clear
3:56 AM 55.4 °F 51.8 °F 88% 30.29 in 10.0 mi Calm Calm - N/A   Clear
4:16 AM 55.4 °F 50.0 °F 82% 30.28 in 10.0 mi West 5.8 mph - N/A   Clear
4:36 AM 57.2 °F 50.0 °F 77% 30.29 in 10.0 mi Calm Calm - N/A   Clear
4:56 AM 59.0 °F 50.0 °F 72% 30.29 in 10.0 mi NNE 3.5 mph - N/A   Clear
5:16 AM 57.2 °F 50.0 °F 77% 30.29 in 10.0 mi North 4.6 mph - N/A   Clear
5:36 AM 59.0 °F 48.2 °F 67% 30.29 in 10.0 mi WNW 4.6 mph - N/A   Clear
5:56 AM 55.4 °F 48.2 °F 77% 30.30 in 10.0 mi NW 4.6 mph - N/A   Clear
6:45 AM 59.0 °F 50.0 °F 72% 30.30 in 30.0 mi NW 8.1 mph - N/A   Partly Cloudy
8:47 AM 64.4 °F 53.6 °F 68% 30.31 in 25.0 mi North 4.6 mph - N/A   Partly Cloudy
9:49 AM 68.0 °F 50.0 °F 52% 30.30 in 30.0 mi Variable 3.5 mph - N/A   Scattered Clouds
10:45 AM 69.8 °F 50.0 °F 49% 30.30 in 30.0 mi North 5.8 mph - N/A   Scattered Clouds
11:53 AM 73.4 °F 48.2 °F 41% 30.29 in 30.0 mi NE 4.6 mph - N/A   Scattered Clouds
12:50 PM 75.2 °F 44.6 °F 34% 30.28 in 30.0 mi NNE 8.1 mph - N/A   Scattered Clouds
1:46 PM 77.0 °F 44.6 °F 32% 30.26 in 40.0 mi Variable 4.6 mph - N/A   Mostly Cloudy
2:23 PM 78.8 °F 44.6 °F 30% 30.25 in 40.0 mi ENE 6.9 mph - N/A   Mostly Cloudy
2:48 PM 78.8 °F 44.6 °F 30% 30.25 in 40.0 mi NNW 8.1 mph - N/A   Mostly Cloudy
3:53 PM 82.4 °F 41.0 °F 23% 30.22 in 35.0 mi NNE 10.4 mph 16.1 mph N/A   Mostly Cloudy
5:53 PM 80.6 °F 39.2 °F 23% 30.20 in 30.0 mi ENE 9.2 mph - N/A   Scattered Clouds
6:57 PM 78.8 °F 37.4 °F 23% 30.22 in 30.0 mi NE 9.2 mph - N/A   Scattered Clouds
7:47 PM 77.0 °F 37.4 °F 24% 30.21 in 30.0 mi ENE 6.9 mph - N/A   Scattered Clouds
8:46 PM 73.4 °F 37.4 °F 27% 30.21 in 25.0 mi NNE 3.5 mph - N/A   Scattered Clouds
9:45 PM 71.6 °F 41.0 °F 33% 30.22 in 30.0 mi NNE 5.8 mph - N/A   Partly Cloudy
11:16 PM 69.8 °F 39.2 °F 33% 30.21 in 10.0 mi NNW 4.6 mph - N/A   Clear
11:35 PM 69.8 °F 41.0 °F 35% 30.21 in 10.0 mi NW 6.9 mph - N/A   Clear
11:56 PM 66.2 °F 42.8 °F 43% 30.20 in 10.0 mi WNW 9.2 mph - N/A   Clear